Location: ???????
(55.7027°N, 37.3832°E)
Time: 07:24:43
(UTC+00:00)

Cosmos 44 - Pass Details

Date: 14 April 2026
Orbit: 568 x 782 km, 65.1° (Epoch: 12 May)

Event Time Altitude Azimuth Distance (km) Brightness Sun altitude
Exits shadow 19:38:03 28° 97° (E) 1,382 4.5 -20.6°
Drops below altitude 10° 19:41:37 10° 59° (ENE) 2,312 6.0 -20.8°
Sets 19:44:18 0° 49° (NE) 3,261 6.9 -21.0°
